This is the latest recevied weather packets stored in our database for station/object N5PRN. If no packets are shown the sender has not sent any weather packets the latest 10 day(s).
| Time | Temp. | Humidity | Pressure | Rain* | Wind** | Luminosity | Snow |
|---|---|---|---|---|---|---|---|
| 1777640543 | 15° C | 96% | 1015.1 hPa | 3.05 mm | - | 17 W/m² | - |
| 1777640240 | 14.44° C | 96% | 1015 hPa | 1.78 mm | - | 16 W/m² | - |
| 1777639937 | 14.44° C | 96% | 1014.9 hPa | 1.78 mm | - | 19 W/m² | - |
| 1777639634 | 14.44° C | 96% | 1014.9 hPa | 1.78 mm | - | 21 W/m² | - |
| 1777639330 | 14.44° C | 96% | 1014.8 hPa | 1.78 mm | - | 21 W/m² | - |
| 1777639026 | 14.44° C | 96% | 1014.8 hPa | 0 mm | - | 16 W/m² | - |
| 1777638723 | 14.44° C | 96% | 1014.8 hPa | 0 mm | - | 13 W/m² | - |
| 1777638419 | 14.44° C | 96% | 1014.5 hPa | 0 mm | - | 11 W/m² | - |
| 1777638116 | 14.44° C | 96% | 1014.6 hPa | 0 mm | - | 9 W/m² | - |
| 1777637812 | 14.44° C | 96% | 1014.4 hPa | 0 mm | - | 10 W/m² | - |
| 1777637508 | 14.44° C | 96% | 1014.4 hPa | 0 mm | - | 7 W/m² | - |
| 1777637206 | 14.44° C | 96% | 1014.1 hPa | 0 mm | - | 5 W/m² | - |
| 1777636903 | 14.44° C | 96% | 1014 hPa | 0 mm | - | 5 W/m² | - |
| 1777636599 | 14.44° C | 96% | 1013.9 hPa | 0 mm | - | 4 W/m² | - |
| 1777636295 | 14.44° C | 96% | 1013.7 hPa | 0 mm | - | 3 W/m² | - |
| 1777635990 | 14.44° C | 96% | 1013.5 hPa | 0 mm | - | 1 W/m² | - |
| 1777635686 | 14.44° C | 96% | 1013.6 hPa | 0 mm | - | 1 W/m² | - |
| 1777635383 | 14.44° C | 96% | 1013.6 hPa | 0 mm | - | 0 W/m² | - |
| 1777635080 | 14.44° C | 96% | 1013.6 hPa | 0 mm | - | 0 W/m² | - |
| 1777634775 | 14.44° C | 96% | 1013.5 hPa | 0 mm | - | 0 W/m² | - |
| 1777634473 | 14.44° C | 96% | 1013.4 hPa | 0 mm | - | 0 W/m² | - |
| 1777634169 | 14.44° C | 96% | 1013.4 hPa | 0 mm | - | 0 W/m² | - |
| 1777633866 | 14.44° C | 96% | 1013.1 hPa | 0 mm | - | 0 W/m² | - |
| 1777633564 | 14.44° C | 96% | 1013.3 hPa | 0 mm | - | 0 W/m² | - |
| 1777633262 | 14.44° C | 96% | 1013.1 hPa | 0 mm | - | 0 W/m² | - |
* Rain latest hour (hover to see other rain measurements)
** Current wind speed in m/s (hover to see current wind gust speed)